Погода в Эльтоне

Погода в Эльтоне : погода сейчас, прогноз погоды и архив. Всё, что Вы хотите узнать о погоде в Эльтоне!

Хотите узнать прогноз погоды в Эльтоне? Тогда Вам сюда: Погода в Эльтоне

Поиск расширенной информации на нашем сайте:

Другие новости

Новости СМИ2

Главная страница сайта

Новости сайта

03.07.2017

Напоминаем, что на нашем специализированном сайте Метеоцентр.Азия вы можете получить высокодетализированные автоматические прогнозы погоды по пунктам России, СНГ и мира в авиационном формате (включающие направление и скорость ветра, видимость, явления погоды, количество и форму облачности, нижнюю и верхнюю границу облачности).


Погода в Эльтоне - сегодня

Время (UTC), дата Ветер
(°,м/с) 
Видим.   Явления Облачность Т
(°С)
Тd
(°С)
f(%) Тe
(°С)
Pmin
(гПа)
dP
(гПа)
Po
(мм)
O2
(г/м3)
Тmin Tmax R s Состояние
почвы
03 19.11.17 090 (В) 4000 м  дымка  10/0 средняя 
[Ac und]
-0.7 -1.7 93 -3  1023.3  -1.2  767  310  -1.4         
06 19.11.17 100 (В) 4000 м  дымка  10/5 600 м средняя 
[Sc|Ac trans]
+0.7 -0.8 90 -2  1023.1  -0.2  767  308           
09 19.11.17 100 (В) 20000 м    9/3 600 м средняя 
[Sc|Ac trans]
+3.8 +1.1 83 +1  1020.8  -2.3  765  304           
12 19.11.17 100 (В) 20000 м    8/0 средняя, верхняя 
[Ac trans|Ci]
+6.6 +1.9 72 +5  1019.9  -0.9  764  300           
15 19.11.17 110 (В) 20000 м    10/3 300 м средняя 
[St|Ac trans]
+5.6 +3 83 +4  1019.1  -0.8  764  301    +6.9       
18 19.11.17 120 (ЮВ) 2000 м  дымка  10/10 300 м 
[St]
+5.1 +4.2 94 +3  1019.1  764  301           
21 19.11.17 110 (В) 4000 м  слаб. морось  10/10 300 м 
[St]
+4.5 +3.3 92 +2  1018.3  -0.8  763  302           
00 20.11.17 110 (В) 4000 м  дымка{морось}  10/10 300 м 
[St]
+3.8 +3 94 +2  1018.1  -0.2  763  303           
03 20.11.17 090 (В) 4000 м  дымка  10/10 300 м 
[St]
+3.2 +1.6 89 +1  1017.3  -0.8  762  303  +3.1    0.0     
06 20.11.17 090 (В) 20000 м  дымка  9/0 средняя, верхняя 
[Ac trans|Ci]
+2.6 +0.6 87 +1  1017  -0.3  762  304  +2.3         
09 20.11.17 100 (В) 20000 м    10/0 средняя 
[As trans]
+7.3 +2.8 73 +6  1015.7  -1.2  761  298           
12 20.11.17 090 (В) 20000 м    10/0 средняя 
[Ac und]
+7.9 +2.7 70 +6  1014.6  -1.1  760  297           
15 20.11.17 090 (В) 20000 м    9/0 средняя, верхняя 
[Ac trans|Ci]
+5.3 +0.7 72 +3  1014.1  -0.4  760  300    +8.2       
18 20.11.17 100 (В) 4{10}  20000 м    8/0 средняя 
[Ac trans]
+3 -0.4 78 +1  1013  -1.2  759  303           
21 20.11.17 070 (В) 20000 м    4/0 средняя 
[Ac trans]
+2 -0.5 83 1011.3  -1.7  758  303           
00 21.11.17 070 (В) 20000 м    3/0 средняя 
[Ac trans]
+0.2 -1.2 90 -2  1009.8  -1.5  757  305           
03 21.11.17 060 (СВ) 20000 м    ясно 
-0 -1.5 90 -2  1008.3  -1.5  756  305  -0         
06 21.11.17 080 (В) 20000 м    1/0 верхняя 
[Ci fib]
+2.2 -0.6 82 1007.7  -0.6  755  302  -0.1         
09 21.11.17 050 (СВ) 20000 м    1/0 верхняя 
[Ci fib]
+6.4 +1 68 +6  1007  -0.7  755  297           
12 21.11.17 080 (В) 20000 м    9/1 600 м средняя, верхняя 
[Sc|Ac trans|Ci]
+7.1 +1.7 68 +7  1005.9  -1.1  754  296           
15 21.11.17 070 (В) 20000 м    ясно 
+3.6 +0.6 81 +2  1005.1  -0.7  753  299    +8       
18 21.11.17 080 (В) 20000 м    ясно 
+1.9 -0.2 86 -1  1003.7  -1.4  752  301           
21 21.11.17 080 (В) 4000 м  дымка  10/10 300 м 
[St]
+2.7 +1.5 92 +1  1002.5  -1.1  751  300           
00 22.11.17 070 (В) 2000 м  в посл. час туман  10/10 300 м 
[St]
+4.3 +3.7 96 +4  1001.7  -0.8  751  297           
03 22.11.17 050 (СВ) 4000 м  слаб. морось  10/10 300 м 
[St]
+4.9 +4.2 95 +4  1002.2  0.5  751  297  +1.6    0.0     
Время (UTC), дата Ветер
(°,м/с) 
Видим.   Явления Облачность Т
(°С)
Тd
(°С)
f(%) Тe
(°С)
Pmin
(гПа)
dP
(гПа)
Po
(мм)
O2
(г/м3)
Тmin Tmax R s Состояние
почвы

Для получения пояснительной информации подведите курсор к названию столбца.

ПОГОДА в Эльтоне - архив

Всё, что Вы хотите узнать о погоде в Эльтоне - удобно и подробно!

Выберите нужную дату (начиная с 1 января 2015* года) и нажмите кнопку "Найти".
Будут отображены архивные сводки погоды по пункту Эльтон, начиная с указанной даты.


Отображать данные в формате CSV (для использования в таблицах Excel)


Внимание! Наш архив погоды предназначен исключительно для личного некоммерческого использования в познавательных целях. Если Вам необходимы официальные справки о состоянии погоды (для производственных, юридических, коммерческих и т.п. целей), обращайтесь в органы Росгидромета.

*Примечание: данная дата относится к архиву по метеостанциям СССР (Россия, СНГ, Балтия).
Архив по метеостанциям Зарубежной Европы и Азии (кроме Китая) хранится 10 дней, по другим регионам земного шара (Китай, Африка, Америка, Австралия, Океания) - 1 день.

Эльтон - район местоположения метеостанции


Название, широта, долгота, высота метеостанции:
Эльтон 49.1°ш. 46.9°д. 6 м над ур. моря [Российская Федерация]

Дополнительная информация

В oтличие oт бoльшинства пoгoдных сайтoв мы публикуем пoдрoбную метеoинфoрмацию в детальнoм прoфессиoнальнoм фoрмате.

Характеристики температуры и влажнoсти вoздуха измеряются на высoте 2 м в тени вдали oт зданий и деревьев.
Скoрoсть ветра измеряется на высoте 10 м (на урoвне рoста челoвека скoрoсть ветра ниже в 1.5-2 раза). Если метеoстанция нахoдится в гoрoде или в лесу, тo скoрoсть ветра занижена на 2-4 м/с пo сравнению с oткрытым местoм. Скoрoсть ветра над акватoриями крупных рек и oзёр, а также на вершинах хoлмoв на 2-5 м/с выше, чем в oбычных услoвиях.
Атмoсфернoе давление в разных тoчках местнoсти мoжет значительнo oтличаться oт давления на метеoстанции, в зависимoсти oт услoвий рельефа (при пoдъёме на 10 м давление пoнижается примернo на 1 мм рт.ст.).